[Iaude] MPEC P14: 2024 OC2 [a=2.65,e=0.78,i=7.7,H=21.1,PHA]
    mpec at cfa.harvard.edu 
    mpec at cfa.harvard.edu
       
    Thu Aug  1 11:20:58 EDT 2024
    
    
  
M.P.E.C. 2024-P14                                Issued 2024 August 1, 15:19 UT
     The Minor Planet Electronic Circulars contain information on unusual
         minor planets, routine data on comets and natural satellites,
         and occasional editorial announcements.  They are published
    on behalf of Division F of the International Astronomical Union by the
          Minor Planet Center, Smithsonian Astrophysical Observatory,
                          Cambridge, MA 02138, U.S.A.
			  
             Prepared using the Tamkin Foundation Computer Network
                              MPC at CFA.HARVARD.EDU
            URL https://www.minorplanetcenter.net/    ISSN 1523-6714
                                    2024 OC2                                    
Observations:
     K24O02C* C2024 07 28.29555216 41 49.249-12 07 15.20         21.80wXEP014F51
     K24O02C  C2024 07 28.30747316 41 46.788-12 07 18.46         22.04wXEP014F51
     K24O02C  C2024 07 28.31934716 41 44.372-12 07 21.47         22.05wXEP014F51
     K24O02C  C2024 07 28.33118116 41 41.934-12 07 25.09         22.10wXEP014F51
     K24O02C  C2024 07 28.42531416 41 22.715-12 07 50.31         22.00GVEP014F52
     K24O02C  C2024 07 28.42614216 41 22.581-12 07 50.24         21.36GVEP014F52
     K24O02C KC2024 07 29.11180916 39 07.47 -12 11 09.3          22.0 GVEP014H21
     K24O02C KC2024 07 29.11903616 39 05.98 -12 11 11.4          21.7 GVEP014H21
     K24O02C KC2024 07 29.12192716 39 05.41 -12 11 11.8          21.6 GVEP014H21
     K24O02C 3C2024 07 29.25909816 38 38.543-12 11 47.13         21.41GVEP014T14
     K24O02C 3C2024 07 29.26007416 38 38.345-12 11 47.39         21.41GVEP014T14
     K24O02C 3C2024 07 29.26105216 38 38.145-12 11 47.67         21.41GVEP014T14
     K24O02C 3C2024 08 01.29494016 28 40.923-12 27 05.45         21.71GVEP014T14
     K24O02C 3C2024 08 01.29591916 28 40.726-12 27 05.76         21.65GVEP014T14
     K24O02C 3C2024 08 01.29689816 28 40.525-12 27 06.05         21.68GVEP014T14
Observer details:
F51 Pan-STARRS 1, Haleakala.  Observers J. Herman, T. Lowe, P. Minguez, A.
    Schultz, I. Smith.  Measurers K. Chambers, T. de Boer, J. Fairlamb, H.
    Gao, M. Huber, C.-C. Lin, E. Magnier, Y. Ramanjooloo, R. Wainscoat, R.
    Weryk.  1.8-m Ritchey-Chretien + CCD.
F52 Pan-STARRS 2, Haleakala.  Observers J. Herman, T. Lowe, P. Minguez, A.
    Schultz, I. Smith.  Measurers K. Chambers, T. de Boer, J. Fairlamb, H.
    Gao, M. Huber, C.-C. Lin, E. Magnier, Y. Ramanjooloo, R. Wainscoat, R.
    Weryk.  1.8-m Ritchey-Chretien + CCD.
H21 Astronomical Research Observatory, Westfield.  Observer R. Holmes.
    Measurers T. Linder, R. Holmes.  1.3-m f/4.0 astrograph + CCD.
T14 Canada-France-Hawaii Telescope, Maunakea.  Observers R. Wainscoat, J.
    Silva, H. Flewelling, V. Khatu.  Measurers R. Weryk, R. Wainscoat.  3.6-m
    f/4.1 reflector + CCD.
Orbital elements:
2024 OC2                                            PHA, Earth MOID = 0.0201 AU
Epoch 2024 Oct. 17.0 TT = JDT 2460600.5                 Alexandersen            
M   1.75866              (2000.0)            P               Q                  
n   0.22800329     Peri.  258.69778     +0.81110437     -0.57755923             
a   2.6536398      Node   136.49566     +0.57522433     +0.75905857             
e   0.7773027      Incl.    7.71242     +0.10595596     +0.30042539             
P   4.32           H   21.19          G   0.15           U   9                  
Residuals in seconds of arc
240728 F51  0.1+  0.0     240728 F52  0.2+  0.1-    240729 T14  0.1-  0.0
240728 F51  0.1-  0.0     240729 H21  0.2+  0.0     240729 T14  0.1-  0.0
240728 F51  0.2+  0.2+    240729 H21  0.0   0.1-    240801 T14  0.0   0.0
240728 F51  0.0   0.2-    240729 H21  0.2+  0.3+    240801 T14  0.0   0.0
240728 F52  0.3-  0.4-    240729 T14  0.1-  0.0     240801 T14  0.0   0.0
Ephemeris:
2024 OC2                 a,e,i = 2.65, 0.78, 8                   q = 0.5910
Date    TT    R. A. (2000) Decl.     Delta      r    Elong.  Phase     V
2024 07 02    18 03 03.2 -11 04 50   0.6816  1.6833   164.5     9.3    22.1
...
2024 07 17    17 19 02.0 -11 25 42   0.5641  1.5076   143.5    23.6    22.0
...
2024 07 25    16 52 44.9 -11 52 46   0.5221  1.4103   130.2    33.4    21.9
...
2024 07 31    16 32 55.2 -12 20 13   0.4977  1.3356   120.0    41.1    21.9
2024 08 01    16 29 39.0 -12 25 23   0.4941  1.3231   118.3    42.5    21.9
2024 08 02    16 26 23.8 -12 30 42   0.4906  1.3105   116.7    43.8    21.9
...
2024 08 08    16 07 14.6 -13 06 00   0.4715  1.2342   106.6    52.0    21.9
...
2024 08 16    15 42 35.1 -14 00 52   0.4484  1.1310    93.3    63.4    22.0
...
2024 08 31    14 53 41.5 -15 51 53   0.4023  0.9358    67.9    88.6    22.2
A. U. Tomatic                (C) Copyright 2024 MPC           M.P.E.C. 2024-P14
    
    
More information about the Iaude
mailing list